EGSS

London Stansted Airport

Airport
ICAO code
EGSS
IATA Code
STN
Summary
ICAO Region
EUR
ICAO Territory
Location

Stansted, England, United Kingdom, Essex

Serving
London
Elevation
348 ft
Coordinates
51° 53' 22" N , 0° 15' 41" E
KCC
Metar
EGSS 142250Z AUTO 25007KT 9999 NCD 08/03 Q1016

London Stansted Airport is an international airport located at Stansted Mountfitchet in the district of Uttlesford in Essex, 42nm northeast of Central London.

Climatology

Temperate Marine climate/Oceanic climate (Köppen climate classification Cfb).

Runways

Designator Length Width Surface Rops
5/23 3048 46 ASP Yes/Yes

SKYbrary Partners:

Safety knowledge contributed by: